Provo, UT

6:05 AM MST on February 24, 2017 (GMT -0700)
Provo Municipal

Weather History for KPVU - March, 2014

Change the Weather History Date:

Saturday, March 22, 2014

  Actual Average Record
Temperature  
Mean Temperature 42 °F -  
Max Temperature 50 °F 54 °F 80 °F (2004)
Min Temperature 35 °F 32 °F 25 °F (1985)
Degree Days  
Heating Degree Days 22    
Moisture  
Dew Point 28 °F    
Average Humidity 62    
Maximum Humidity 93    
Minimum Humidity 30    
Precipitation  
Precipitation 0.02 in - - ()
Sea Level Pressure  
Sea Level Pressure 30.09 in    
Wind  
Wind Speed 6 mph (WNW)    
Max Wind Speed 13 mph    
Max Gust Speed 21 mph    
Visibility 12 miles    
Events      
Averages and records for this station are not official NWS values.
T = Trace of Precipitation, MM = Missing Value Source: NWS Daily Summary

Daily Weather History Graph

Daily Weather History Graph

Search for Another Location

Airport or City:

Trip Planner

Search our weather history database for the weather conditions in past years. The results will help you decide how hot, cold, wet, or windy it might be!

Date:

Astronomy

Mar. 22, 2014 Rise Set
Actual Time 7:26 AM MDT 7:41 PM MDT
Civil Twilight 6:59 AM MDT 8:08 PM MDT
Nautical Twilight 6:28 AM MDT 8:40 PM MDT
Astronomical Twilight 5:55 AM MDT 9:12 PM MDT
Moon 1:04 AM MDT (3/22) 11:13 AM MDT (3/22)
Length of Visible Light 13h 08m
Length of Day
12h 14m
Waning Gibbous, 65% of the Moon is Illuminated
Mar 22
Waning Gibbous
Mar 23
Last Quarter
Mar 30
New
Apr 7
First Quarter
Apr 15
Full

Hourly Weather History & Observations

Time (MDT) Temp. Windchill Dew Point Humidity Pressure Visibility Wind Dir Wind Speed Gust Speed Precip Events Conditions
12:15 AM 44.6 °F 39.2 °F 26.6 °F 49% 29.98 in 10.0 mi WNW 10.4 mph - N/A   Scattered Clouds
12:35 AM 44.6 °F 41.4 °F 24.8 °F 46% 29.97 in 10.0 mi NNW 5.8 mph - N/A   Mostly Cloudy
12:55 AM 42.8 °F - 26.6 °F 53% 29.98 in 10.0 mi Calm Calm - N/A   Mostly Cloudy
1:15 AM 42.8 °F - 28.4 °F 57% 29.98 in 10.0 mi Calm Calm - N/A   Mostly Cloudy
1:35 AM 44.6 °F - 28.4 °F 53% 29.99 in 10.0 mi Calm Calm - N/A   Mostly Cloudy
1:55 AM 42.8 °F 41.1 °F 30.2 °F 61% 30.01 in 9.0 mi North 3.5 mph 20.7 mph N/A   Overcast
2:15 AM 42.8 °F 38.6 °F 32.0 °F 66% 30.01 in 10.0 mi South 6.9 mph - N/A   Overcast
2:35 AM 41.0 °F 36.4 °F 33.8 °F 76% 30.02 in 10.0 mi ESE 6.9 mph - N/A   Overcast
2:55 AM 39.2 °F 33.6 °F 33.8 °F 81% 30.01 in 10.0 mi SE 8.1 mph - 0.01 in   Overcast
3:15 AM 39.2 °F 33.0 °F 33.8 °F 81% 30.00 in 10.0 mi SSE 9.2 mph - 0.01 in   Mostly Cloudy
3:35 AM 39.2 °F 33.0 °F 35.6 °F 87% 29.99 in 10.0 mi SSE 9.2 mph - 0.01 in   Mostly Cloudy
3:55 AM 37.4 °F 30.8 °F 35.6 °F 93% 30.00 in 10.0 mi South 9.2 mph - 0.01 in   Mostly Cloudy
4:15 AM 37.4 °F 31.4 °F 33.8 °F 87% 30.00 in 10.0 mi South 8.1 mph - N/A   Mostly Cloudy
4:35 AM 37.4 °F 32.1 °F 33.8 °F 87% 30.00 in 10.0 mi SSE 6.9 mph - N/A   Mostly Cloudy
4:55 AM 37.4 °F 32.8 °F 35.6 °F 93% 30.00 in 10.0 mi SSE 5.8 mph - N/A   Mostly Cloudy
5:15 AM 37.4 °F - 33.8 °F 87% 30.00 in 10.0 mi Calm Calm - N/A   Mostly Cloudy
5:35 AM 37.4 °F - 33.8 °F 87% 30.01 in 10.0 mi Calm Calm - N/A   Mostly Cloudy
5:55 AM 37.4 °F - 35.6 °F 93% 30.01 in 10.0 mi Calm Calm - N/A   Mostly Cloudy
6:15 AM 35.6 °F 32.8 °F 33.8 °F 93% 30.02 in 10.0 mi North 3.5 mph - N/A   Mostly Cloudy
6:35 AM 35.6 °F 31.7 °F 32.0 °F 87% 30.03 in 10.0 mi NNW 4.6 mph - N/A   Overcast
6:51 AM 37.4 °F - 35.6 °F 93% 30.05 in 15.0 mi North - - N/A   Overcast
7:49 AM 39.2 °F 34.2 °F 32.0 °F 75% 30.08 in 15.0 mi NW 6.9 mph - N/A   Mostly Cloudy
8:50 AM 39.2 °F 33.6 °F 33.8 °F 81% 30.09 in 15.0 mi West 8.1 mph - N/A   Mostly Cloudy
9:47 AM 41.0 °F 34.7 °F 35.6 °F 81% 30.12 in 15.0 mi WNW 10.4 mph - N/A   Scattered Clouds
10:51 AM 42.8 °F 37.0 °F 28.4 °F 57% 30.14 in 15.0 mi West 10.4 mph - N/A   Scattered Clouds
11:55 AM 46.4 °F 41.1 °F 23.0 °F 40% 30.15 in 15.0 mi WNW 11.5 mph - N/A   Scattered Clouds
12:59 PM 48.2 °F - 23.0 °F 37% 30.15 in 15.0 mi West 9.2 mph - N/A   Scattered Clouds
1:59 PM 48.2 °F - 24.8 °F 40% 30.15 in 15.0 mi WSW 8.1 mph - N/A   Scattered Clouds
4:47 PM 50.0 °F - 19.4 °F 30% 30.14 in 15.0 mi Calm Calm - N/A   Unknown
5:47 PM 50.0 °F - 19.4 °F 30% 30.14 in 15.0 mi West 9.2 mph - N/A   Unknown
6:57 PM 46.4 °F 42.4 °F 21.2 °F 37% 30.16 in 15.0 mi WNW 8.1 mph - N/A   Unknown
7:56 PM 44.6 °F 39.2 °F 21.2 °F 39% 30.17 in 15.0 mi WNW 10.4 mph - N/A   Partly Cloudy
8:55 PM 44.6 °F 40.7 °F 21.2 °F 39% 30.17 in 15.0 mi WNW 6.9 mph - N/A   Partly Cloudy
9:15 PM 42.8 °F 36.2 °F 17.6 °F 36% 30.20 in 10.0 mi NW 12.7 mph - N/A   Clear
9:35 PM 42.8 °F 36.2 °F 19.4 °F 39% 30.20 in 10.0 mi NW 12.7 mph - N/A   Clear
9:55 PM 41.0 °F 34.3 °F 19.4 °F 42% 30.20 in 10.0 mi NW 11.5 mph - N/A   Clear
10:15 PM 41.0 °F 35.2 °F 19.4 °F 42% 30.20 in 10.0 mi NNW 9.2 mph - N/A   Clear
10:35 PM 39.2 °F 37.0 °F 21.2 °F 49% 30.21 in 10.0 mi NNE 3.5 mph - N/A   Clear
10:55 PM 39.2 °F 37.0 °F 21.2 °F 49% 30.21 in 10.0 mi NNE 3.5 mph - N/A   Clear
11:15 PM 37.4 °F - 21.2 °F 52% 30.22 in 10.0 mi Calm Calm - N/A   Clear
11:35 PM 35.6 °F 31.7 °F 19.4 °F 52% 30.22 in 10.0 mi SE 4.6 mph - N/A   Clear
11:55 PM 37.4 °F 34.9 °F 23.0 °F 56% 30.22 in 10.0 mi South 3.5 mph - N/A   Clear